Exeter, United Kingdom

7:09 PM BST on June 27, 2017 (GMT +0100)
Exeter

Weather History for EGTE - December, 2012

Change the Weather History Date:

Tuesday, December 11, 2012

  Actual Average Record
Temperature  
Mean Temperature 30 °F -  
Max Temperature 37 °F 46 °F 57 °F (1997)
Min Temperature 23 °F 36 °F 23 °F (2012)
Degree Days  
Heating Degree Days 35    
Moisture  
Dew Point 29 °F    
Average Humidity 93    
Maximum Humidity 100    
Minimum Humidity 81    
Precipitation  
Precipitation 0.01 in - - ()
Sea Level Pressure  
Sea Level Pressure 30.38 in    
Wind  
Wind Speed 2 mph ()    
Max Wind Speed 6 mph    
Max Gust Speed -    
Visibility 6.1 miles    
Events      
Averages and records for this station are not official NWS values.
T = Trace of Precipitation, MM = Missing Value Source: Averaged Metar Reports

Daily Weather History Graph

Daily Weather History Graph

Search for Another Location

Airport or City:

Trip Planner

Search our weather history database for the weather conditions in past years. The results will help you decide how hot, cold, wet, or windy it might be!

Date:

Astronomy

Dec. 11, 2012 Rise Set
Actual Time 8:05 AM GMT 4:08 PM GMT
Civil Twilight 7:26 AM GMT 4:47 PM GMT
Nautical Twilight 6:44 AM GMT 5:29 PM GMT
Astronomical Twilight 6:04 AM GMT 6:09 PM GMT
Moon 5:35 AM GMT (12/11) 2:40 PM GMT (12/11)
Length of Visible Light 9h 20m
Length of Day
8h 02m
Waning Crescent, 5% of the Moon is Illuminated
Dec 11
Waning Crescent
Dec 13
New
Dec 20
First Quarter
Dec 28
Full
Jan 5
Last Quarter

Hourly Weather History & Observations

Time (GMT) Temp. Windchill Dew Point Humidity Pressure Visibility Wind Dir Wind Speed Gust Speed Precip Events Conditions
12:20 AM 30.2 °F - 30.2 °F 100% 30.39 in - Calm Calm - N/A   Clear
12:50 AM 30.2 °F - 28.4 °F 93% 30.39 in - Calm Calm - N/A   Clear
1:20 AM 30.2 °F - 28.4 °F 93% 30.39 in - Calm Calm - N/A   Clear
1:50 AM 28.4 °F - 28.4 °F 100% 30.39 in - Calm Calm - N/A   Clear
2:50 AM 26 °F - 26 °F 100%  in - West 2.3 mph - -  
5:50 AM 27 °F - 27 °F 99%  in - NW 2.3 mph - -  
6:50 AM 24.8 °F - 24.8 °F 100% 30.42 in 5.0 mi Calm Calm - N/A   Unknown
7:20 AM 26.6 °F - 24.8 °F 93% 30.42 in 5.6 mi Calm Calm - N/A   Unknown
7:50 AM 24.8 °F - 24.8 °F 100% 30.42 in 5.0 mi Calm Calm - N/A   Unknown
8:20 AM 24.8 °F - 24.8 °F 100% 30.42 in - Calm Calm - N/A   Clear
8:50 AM 26 °F - 26 °F 100%  in - ENE 3.5 mph - -  
8:50 AM 23.0 °F - 23.0 °F 100% 30.42 in - Calm Calm - N/A   Clear
9:20 AM 24.8 °F - 24.8 °F 100% 30.45 in - Variable 1.2 mph - N/A   Clear
9:50 AM 28.4 °F - 28.4 °F 100% 30.45 in - North 2.3 mph - N/A   Clear
10:20 AM 30.2 °F - 30.2 °F 100% 30.45 in - Calm Calm - N/A   Clear
10:50 AM 32.0 °F - 30.2 °F 93% 30.45 in - Calm Calm - N/A   Clear
11:20 AM 33.8 °F - 32.0 °F 93% 30.45 in - Calm Calm - N/A   Clear
11:50 AM 35 °F - 34 °F 92%  in - WSW 1.2 mph - -  
11:50 AM 33.8 °F - 32.0 °F 93% 30.42 in - Calm Calm - N/A   Clear
12:20 PM 35.6 °F - 33.8 °F 93% 30.42 in - Variable 2.3 mph - N/A   Clear
12:50 PM 35.6 °F - 33.8 °F 93% 30.42 in 6.2 mi Variable 1.2 mph - N/A   Partly Cloudy
1:20 PM 37.4 °F - 33.8 °F 87% 30.42 in 6.2 mi NNE 2.3 mph - N/A   Partly Cloudy
1:50 PM 37.4 °F 34.9 °F 33.8 °F 87% 30.39 in 6.2 mi NNE 3.5 mph - N/A   Partly Cloudy
2:20 PM 37.4 °F 34.9 °F 33.8 °F 87% 30.39 in 6.2 mi NNE 3.5 mph - N/A   Partly Cloudy
2:50 PM 38 °F - 35 °F 82%  in - NNE 3.5 mph - -  
2:50 PM 39.2 °F - 33.8 °F 81% 30.39 in 6.2 mi NNE 2.3 mph - N/A   Partly Cloudy
3:20 PM 37.4 °F - 33.8 °F 87% 30.36 in 6.2 mi NE 1.2 mph - N/A   Partly Cloudy
3:50 PM 35.6 °F - 32.0 °F 87% 30.36 in 6.2 mi NNE 1.2 mph - N/A   Partly Cloudy
4:20 PM 33.8 °F 30.8 °F 32.0 °F 93% 30.36 in 6.2 mi NE 3.5 mph - N/A   Partly Cloudy
4:50 PM 33.8 °F 29.6 °F 30.2 °F 87% 30.36 in 6.2 mi NE 4.6 mph - N/A   Partly Cloudy
5:20 PM 32.0 °F 27.5 °F 28.4 °F 87% 30.36 in 6.2 mi NE 4.6 mph - N/A   Partly Cloudy
5:50 PM 32 °F - 30 °F 88%  in - NE 3.5 mph - -  
5:50 PM 30.2 °F 25.4 °F 28.4 °F 93% 30.36 in 6.2 mi NE 4.6 mph - N/A   Partly Cloudy
6:20 PM 28.4 °F 23.3 °F 26.6 °F 93% 30.36 in 6.2 mi NE 4.6 mph - N/A   Partly Cloudy
6:50 PM 30.2 °F 24.3 °F 28.4 °F 93% 30.36 in 6.2 mi NE 5.8 mph - N/A   Partly Cloudy
7:20 PM 30.2 °F 25.4 °F 26.6 °F 86% 30.33 in 6.2 mi NE 4.6 mph - N/A   Partly Cloudy
7:50 PM 30.2 °F 25.4 °F 26.6 °F 86% 30.33 in 6.2 mi NE 4.6 mph - N/A   Partly Cloudy
8:20 PM 30.2 °F 25.4 °F 28.4 °F 93% 30.33 in 6.2 mi NE 4.6 mph - N/A   Partly Cloudy
8:50 PM 31 °F - 29 °F 92%  in - NE 5.8 mph - -  
8:50 PM 30.2 °F 24.3 °F 28.4 °F 93% 30.33 in 6.2 mi NE 5.8 mph - N/A   Partly Cloudy
9:20 PM 30.2 °F 24.3 °F 28.4 °F 93% 30.33 in 6.2 mi NE 5.8 mph - N/A   Partly Cloudy
9:50 PM 30.2 °F - 28.4 °F 93% 30.30 in 6.2 mi Variable 2.3 mph - N/A   Partly Cloudy
10:20 PM 30.2 °F - 28.4 °F 93% 30.30 in 6.2 mi NNE 2.3 mph - N/A   Partly Cloudy
10:50 PM 32.0 °F 27.5 °F 30.2 °F 93% 30.30 in 6.2 mi NNE 4.6 mph - N/A   Scattered Clouds
11:20 PM 32.0 °F 28.7 °F 30.2 °F 93% 30.30 in 6.2 mi NNE 3.5 mph - N/A   Light Drizzle
11:50 PM 31 °F - 31 °F 100%  in - NE 5.8 mph - -  
11:50 PM 32.0 °F 27.5 °F 30.2 °F 93% 30.27 in 6.2 mi North 4.6 mph - N/A   Scattered Clouds